Holloman AFB, NM

2:50 PM MDT on March 28, 2017 (GMT -0600)
Holloman Air Force Base

Weather History for KHMN - January, 2014

Change the Weather History Date:

Friday, January 31, 2014

  Actual Average Record
Temperature  
Mean Temperature 61 °F -  
Max Temperature 69 °F 55 °F 69 °F (2003)
Min Temperature 53 °F 27 °F 15 °F (2013)
Degree Days  
Heating Degree Days 4    
Growing Degree Days 11 (Base 50)    
Moisture  
Dew Point 25 °F    
Average Humidity 25    
Maximum Humidity 31    
Minimum Humidity 20    
Precipitation  
Precipitation 0.00 in - - ()
Sea Level Pressure  
Sea Level Pressure 29.72 in    
Wind  
Wind Speed 16 mph (SSW)    
Max Wind Speed 32 mph    
Max Gust Speed 36 mph    
Visibility 9 miles    
Events      
Averages and records for this station are not official NWS values.
T = Trace of Precipitation, MM = Missing Value Source: NWS Daily Summary

Daily Weather History Graph

Daily Weather History Graph

Search for Another Location

Airport or City:

Trip Planner

Search our weather history database for the weather conditions in past years. The results will help you decide how hot, cold, wet, or windy it might be!

Date:

Astronomy

Jan. 31, 2014 Rise Set
Actual Time 7:00 AM MST 5:36 PM MST
Civil Twilight 6:34 AM MST 6:02 PM MST
Nautical Twilight 6:04 AM MST 6:31 PM MST
Astronomical Twilight 5:35 AM MST 7:00 PM MST
Moon 7:17 AM MST (1/31) 6:56 PM MST (1/31)
Length of Visible Light 11h 27m
Length of Day
10h 36m
New Moon, 1% of the Moon is Illuminated
Jan 31
New Moon
Feb 6
First Quarter
Feb 14
Full
Feb 22
Last Quarter
Mar 1
New

Hourly Weather History & Observations

Time (MST) Temp. Dew Point Humidity Pressure Visibility Wind Dir Wind Speed Gust Speed Precip Events Conditions
12:58 AM 54.1 °F 21.4 °F 28% 29.71 in 10.0 mi SSE 15.0 mph - N/A   Clear
1:58 AM 53.2 °F 22.6 °F 30% 29.71 in 10.0 mi SSE 13.8 mph - N/A   Clear
2:37 AM 59.0 °F 24.8 °F 27% 29.83 in 10.0 mi South 12.7 mph 21.9 mph N/A   Clear
2:52 AM 59.0 °F 24.8 °F 27% 29.83 in 8.0 mi SSE 13.8 mph 19.6 mph N/A   Clear
2:58 AM 58.5 °F 23.9 °F 26% 29.66 in 8.0 mi SSE 13.8 mph 19.6 mph N/A   Clear
3:01 AM 59.0 °F 24.8 °F 27% 29.83 in 9.0 mi SSE 13.8 mph 19.6 mph N/A   Clear
3:30 AM 57.2 °F 23.0 °F 27% 29.83 in 10.0 mi SE 16.1 mph 31.1 mph N/A   Clear
3:41 AM 57.2 °F 24.8 °F 29% 29.84 in 10.0 mi South 16.1 mph 31.1 mph N/A   Clear
3:58 AM 57.0 °F 23.9 °F 28% 29.68 in 10.0 mi SSE 18.4 mph 23.0 mph N/A   Clear
4:58 AM 55.4 °F 23.7 °F 29% 29.70 in 10.0 mi SSE 12.7 mph 24.2 mph N/A   Mostly Cloudy
5:13 AM 57.2 °F 23.0 °F 27% 29.85 in 10.0 mi South 13.8 mph 20.7 mph N/A   Mostly Cloudy
5:58 AM 59.2 °F 23.5 °F 25% 29.72 in 10.0 mi South 10.4 mph 20.7 mph N/A   Mostly Cloudy
6:58 AM 59.9 °F 23.9 °F 25% 29.73 in 10.0 mi SE 10.4 mph - N/A   Mostly Cloudy
7:58 AM 59.7 °F 24.3 °F 26% 29.76 in 10.0 mi South 6.9 mph - N/A   Scattered Clouds
8:09 AM 59.0 °F 24.8 °F 27% 29.90 in 10.0 mi SSW 13.8 mph 18.4 mph N/A   Scattered Clouds
8:12 AM 59.0 °F 24.8 °F 27% 29.89 in 10.0 mi SSW 17.3 mph 23.0 mph N/A   Scattered Clouds
8:58 AM 60.3 °F 24.6 °F 26% 29.77 in 10.0 mi South 9.2 mph - N/A   Scattered Clouds
9:58 AM 60.4 °F 26.2 °F 27% 29.77 in 10.0 mi South 10.4 mph - N/A   Clear
10:58 AM 63.1 °F 26.1 °F 25% 29.75 in 10.0 mi South 13.8 mph 20.7 mph N/A   Clear
11:15 AM 64.4 °F 26.6 °F 24% 29.86 in 10.0 mi SSE 18.4 mph 24.2 mph N/A   Clear
11:58 AM 64.4 °F 26.1 °F 23% 29.72 in 10.0 mi South 13.8 mph 23.0 mph N/A   Partly Cloudy
12:58 PM 66.9 °F 25.0 °F 21% 29.66 in 10.0 mi SSW 13.8 mph 26.5 mph N/A   Clear
1:58 PM 68.5 °F 25.2 °F 20% 29.63 in 7.0 mi SW 20.7 mph 29.9 mph N/A   Clear
2:58 PM 68.0 °F 25.3 °F 20% 29.58 in 9.0 mi SW 20.7 mph 29.9 mph N/A   Clear
3:22 PM 69.8 °F 26.6 °F 20% 29.73 in 1.5 mi WSW 32.2 mph 35.7 mph N/A   Haze
3:25 PM 69.8 °F 26.6 °F 20% 29.73 in 1.2 mi WSW 31.1 mph 35.7 mph N/A   Haze
3:28 PM 69.8 °F 26.6 °F 20% 29.73 in 1.0 mi WSW 27.6 mph 35.7 mph N/A   Haze
3:31 PM 68.0 °F 26.6 °F 21% 29.73 in 1.2 mi WSW 26.5 mph 35.7 mph N/A   Haze
3:34 PM 68.0 °F 26.6 °F 21% 29.73 in 3.0 mi WSW 27.6 mph 33.4 mph N/A   Haze
3:58 PM 68.4 °F 26.2 °F 21% 29.58 in 10.0 mi WSW 24.2 mph 28.8 mph N/A   Clear
4:58 PM 66.4 °F 26.8 °F 23% 29.59 in 10.0 mi WSW 21.9 mph 31.1 mph N/A   Clear
5:58 PM 63.9 °F 27.0 °F 25% 29.59 in 10.0 mi WSW 19.6 mph - N/A   Clear
6:58 PM 62.4 °F 27.1 °F 26% 29.62 in 10.0 mi WSW 13.8 mph - N/A   Clear
7:58 PM 62.2 °F 27.3 °F 27% 29.61 in 10.0 mi SW 16.1 mph 25.3 mph N/A   Clear
8:58 PM 61.5 °F 28.4 °F 29% 29.61 in 10.0 mi WSW 26.5 mph 32.2 mph N/A   Clear
9:58 PM 60.8 °F 27.9 °F 29% 29.62 in 10.0 mi SSW 18.4 mph 27.6 mph N/A   Clear
10:58 PM 58.1 °F 27.5 °F 31% 29.64 in 10.0 mi SSE 9.2 mph - N/A   Clear
11:58 PM 57.9 °F 27.1 °F 31% 29.65 in 10.0 mi SSW 10.4 mph - N/A   Partly Cloudy